GSAT0211 (GALILEO 14)   
1 41549U 16030A   19261.72911789  .00000015  00000-0  00000-0 0  9992
2 41549  56.5111 289.4267 0004196 276.1378  83.8669  1.70474903 20676
GSAT0210 (GALILEO 13)   
1 41550U 16030B   19263.78189801  .00000021  00000-0  00000-0 0  9991
2 41550  56.5095 289.3720 0004697 252.9147 107.0855  1.70474841 20705
FREGAT R/B              
1 41551U 16030C   19263.32596174  .00000019  00000-0  00000+0 0  9993
2 41551  56.4840 290.5067 0019120 218.4005 141.5160  1.67597626 20332